Location: York
(31.8935°S, 116.7682°E)
Time: 01:06:34
(UTC+08:00)

ISS - Pass Details

Date: 12 December 2021
Orbit: 413 x 422 km, 51.6° (Epoch: 20 January)

Event Time Altitude Azimuth Distance (km) Brightness Sun altitude
Rises 20:44:15 0° 315° (NW) 2,351 0.1 -16.7°
Reaches altitude 10° 20:46:20 10° 314° (NW) 1,493 -0.9 -17.1°
Maximum altitude 20:49:41 86° 228° (SW) 425 -3.8 -17.6°
Drops below altitude 10° 20:53:05 10° 136° (SE) 1,508 -1.0 -18.1°
Sets 20:55:11 0° 135° (SE) 2,377 0.1 -18.4°
